• In Portugal
  • List of Countries
  • For 7 days
  • Water Temperature
  • Satellite Maps
  • Weather Map
  • Weather Widgets
  • user-avatar
    Login

    Hourly Weather Monaco

    Today, 11 December, Monday

    Time Temperature Precipitation Wind Pressure Humidity
    00:00 +9°C° 0 mm 5 mps 740 mmHg 95%
    01:00 +9°C° 2.1 mm 6 mps 740 mmHg 95%
    02:00 +9°C° 2.1 mm 6 mps 739 mmHg 96%
    03:00 +10°C° 2.1 mm 7 mps 739 mmHg 97%
    04:00 +10°C° 3 mm 7 mps 738 mmHg 96%
    05:00 +10°C° 3 mm 8 mps 738 mmHg 96%
    06:00 +10°C° 0 mm 9 mps 737 mmHg 97%
    07:00 +11°C° 4.9 mm 9 mps 737 mmHg 96%
    08:00 +11°C° 4.9 mm 10 mps 737 mmHg 96%
    09:00 +11°C° 4.9 mm 10 mps 736 mmHg 95%
    10:00 +11°C° 5.6 mm 10 mps 736 mmHg 96%
    11:00 +11°C° 5.6 mm 10 mps 736 mmHg 96%
    12:00 +12°C° 5.6 mm 10 mps 736 mmHg 96%
    13:00 +12°C° 4.4 mm 10 mps 736 mmHg 96%
    14:00 +12°C° 4.4 mm 10 mps 735 mmHg 96%
    15:00 +12°C° 4.4 mm 10 mps 735 mmHg 96%
    16:00 +12°C° 3.4 mm 9 mps 735 mmHg 96%
    17:00 +12°C° 3.4 mm 9 mps 736 mmHg 97%
    18:00 +11°C° 3.4 mm 8 mps 736 mmHg 97%
    19:00 +11°C° 1.4 mm 8 mps 737 mmHg 96%
    20:00 +11°C° 1.4 mm 8 mps 737 mmHg 95%
    21:00 +10°C° 1.4 mm 7 mps 738 mmHg 94%
    22:00 +10°C° 0 mm 7 mps 739 mmHg 93%
    23:00 +9°C° 0 mm 7 mps 740 mmHg 92%

    Tomorrow, 12 December, Tuesday

    Time Temperature Precipitation Wind Pressure Humidity
    00:00 +8°C° 0 mm 7 mps 741 mmHg 90%
    01:00 +8°C° 0 mm 7 mps 742 mmHg 88%
    02:00 +7°C° 0 mm 6 mps 743 mmHg 86%
    03:00 +5°C° 0 mm 6 mps 744 mmHg 83%
    04:00 +5°C° 0 mm 6 mps 745 mmHg 82%
    05:00 +6°C° 0 mm 5 mps 745 mmHg 80%
    06:00 +6°C° 0 mm 5 mps 746 mmHg 79%
    07:00 +7°C° 0 mm 5 mps 747 mmHg 77%
    08:00 +7°C° 0 mm 5 mps 748 mmHg 75%
    09:00 +8°C° 0 mm 5 mps 748 mmHg 73%
    10:00 +9°C° 0 mm 5 mps 748 mmHg 70%
    11:00 +10°C° 0 mm 5 mps 749 mmHg 67%
    12:00 +10°C° 0 mm 6 mps 749 mmHg 64%
    13:00 +10°C° 0 mm 6 mps 749 mmHg 67%
    14:00 +9°C° 0 mm 6 mps 750 mmHg 70%
    15:00 +9°C° 0 mm 6 mps 750 mmHg 74%
    16:00 +7°C° 0 mm 6 mps 751 mmHg 73%
    17:00 +6°C° 0 mm 5 mps 751 mmHg 72%
    18:00 +5°C° 0 mm 5 mps 752 mmHg 72%
    19:00 +3°C° 0 mm 5 mps 752 mmHg 69%
    20:00 +3°C° 0 mm 5 mps 753 mmHg 66%
    21:00 +3°C° 0 mm 5 mps 753 mmHg 63%
    22:00 +2°C° 0 mm 5 mps 754 mmHg 62%
    23:00 +3°C° 0 mm 4 mps 754 mmHg 61%

    Day after tomorrow, 13 December, Wednesday

    Time Temperature Precipitation Wind Pressure Humidity
    00:00 +3°C° 0 mm 4 mps 755 mmHg 60%
    01:00 +3°C° 0 mm 4 mps 755 mmHg 59%
    02:00 +3°C° 0 mm 3 mps 755 mmHg 57%
    03:00 +3°C° 0 mm 3 mps 755 mmHg 55%
    04:00 +3°C° 0 mm 3 mps 755 mmHg 54%
    05:00 +3°C° 0 mm 3 mps 756 mmHg 52%
    06:00 +3°C° 0 mm 3 mps 756 mmHg 51%
    07:00 +5°C° 0 mm 2 mps 756 mmHg 50%
    08:00 +6°C° 0 mm 2 mps 756 mmHg 49%
    09:00 +8°C° 0 mm 2 mps 757 mmHg 47%
    10:00 +9°C° 0 mm 2 mps 756 mmHg 49%
    11:00 +10°C° 0 mm 2 mps 756 mmHg 50%
    12:00 +11°C° 0 mm 3 mps 756 mmHg 51%
    13:00 +10°C° 0 mm 3 mps 756 mmHg 56%
    14:00 +9°C° 0 mm 3 mps 756 mmHg 61%
    15:00 +9°C° 0 mm 3 mps 755 mmHg 66%
    16:00 +7°C° 0 mm 4 mps 756 mmHg 65%
    17:00 +6°C° 0 mm 4 mps 756 mmHg 64%
    18:00 +5°C° 0 mm 5 mps 756 mmHg 63%
    19:00 +5°C° 0 mm 5 mps 756 mmHg 62%
    20:00 +4°C° 0 mm 6 mps 756 mmHg 62%
    21:00 +4°C° 0 mm 6 mps 756 mmHg 62%
    22:00 +5°C° 0 mm 7 mps 755 mmHg 65%
    23:00 +5°C° 0 mm 7 mps 755 mmHg 69%

    14 December, Thursday

    Time Temperature Precipitation Wind Pressure Humidity
    00:00 +5°C° 0 mm 7 mps 754 mmHg 73%
    01:00 +6°C° 0.1 mm 7 mps 754 mmHg 76%
    02:00 +6°C° 0.1 mm 7 mps 753 mmHg 80%
    03:00 +6°C° 0.1 mm 7 mps 753 mmHg 83%
    04:00 +6°C° 0.2 mm 7 mps 752 mmHg 84%
    05:00 +8°C° 0.2 mm 7 mps 752 mmHg 85%
    06:00 +8°C° 0.2 mm 7 mps 751 mmHg 87%
    07:00 +8°C° 0.1 mm 7 mps 751 mmHg 85%
    08:00 +9°C° 0.1 mm 7 mps 751 mmHg 83%
    09:00 +9°C° 0.1 mm 7 mps 751 mmHg 81%
    10:00 +10°C° 0 mm 8 mps 750 mmHg 77%
    11:00 +12°C° 0 mm 8 mps 750 mmHg 74%
    12:00 +13°C° 0 mm 8 mps 750 mmHg 70%
    13:00 +12°C° 0 mm 8 mps 749 mmHg 72%
    14:00 +11°C° 0 mm 8 mps 749 mmHg 74%
    15:00 +10°C° 0 mm 8 mps 749 mmHg 76%
    16:00 +9°C° 0 mm 8 mps 749 mmHg 76%
    17:00 +7°C° 0 mm 8 mps 749 mmHg 76%
    18:00 +7°C° 0 mm 8 mps 749 mmHg 76%
    19:00 +7°C° 0 mm 8 mps 748 mmHg 76%
    20:00 +7°C° 0 mm 8 mps 748 mmHg 75%
    21:00 +6°C° 0 mm 8 mps 748 mmHg 75%
    22:00 +6°C° 0 mm 8 mps 748 mmHg 76%
    23:00 +6°C° 0 mm 8 mps 747 mmHg 77%

    15 December, Friday

    Time Temperature Precipitation Wind Pressure Humidity
    00:00 +6°C° 0 mm 8 mps 747 mmHg 77%
    01:00 +6°C° 0.1 mm 8 mps 746 mmHg 79%
    02:00 +6°C° 0.1 mm 8 mps 746 mmHg 81%
    03:00 +6°C° 0.1 mm 7 mps 745 mmHg 83%
    04:00 +6°C° 0 mm 7 mps 744 mmHg 83%
    05:00 +6°C° 0 mm 7 mps 744 mmHg 83%
    06:00 +6°C° 0 mm 7 mps 744 mmHg 83%
    07:00 +7°C° 0 mm 8 mps 743 mmHg 81%
    08:00 +9°C° 0 mm 8 mps 743 mmHg 78%
    09:00 +9°C° 0 mm 8 mps 743 mmHg 76%
    10:00 +10°C° 0 mm 8 mps 743 mmHg 68%
    11:00 +10°C° 0 mm 8 mps 743 mmHg 61%
    12:00 +11°C° 0 mm 8 mps 743 mmHg 53%
    13:00 +10°C° 0 mm 8 mps 743 mmHg 55%
    14:00 +9°C° 0 mm 8 mps 743 mmHg 57%
    15:00 +7°C° 0 mm 8 mps 744 mmHg 59%
    16:00 +6°C° 0 mm 8 mps 744 mmHg 60%
    17:00 +4°C° 0 mm 8 mps 745 mmHg 62%
    18:00 +2°C° 0 mm 8 mps 745 mmHg 63%
    19:00 +2°C° 0 mm 8 mps 746 mmHg 61%
    20:00 +3°C° 0 mm 7 mps 746 mmHg 59%
    21:00 +3°C° 0 mm 7 mps 747 mmHg 57%
    22:00 +2°C° 0 mm 6 mps 747 mmHg 55%
    23:00 +2°C° 0 mm 6 mps 748 mmHg 53%

    16 December, Saturday

    Time Temperature Precipitation Wind Pressure Humidity
    00:00 +2°C° 0 mm 5 mps 748 mmHg 51%
    01:00 +2°C° 0 mm 5 mps 748 mmHg 49%
    02:00 +3°C° 0 mm 4 mps 749 mmHg 47%
    03:00 +3°C° 0 mm 4 mps 749 mmHg 45%
    04:00 +1°C° 0 mm 4 mps 750 mmHg 44%
    05:00 +2°C° 0 mm 3 mps 750 mmHg 43%
    06:00 +2°C° 0 mm 3 mps 750 mmHg 42%
    07:00 +3°C° 0 mm 3 mps 751 mmHg 40%
    08:00 +4°C° 0 mm 3 mps 751 mmHg 39%
    09:00 +7°C° 0 mm 3 mps 752 mmHg 38%
    10:00 +8°C° 0 mm 3 mps 752 mmHg 37%
    11:00 +9°C° 0 mm 2 mps 752 mmHg 36%
    12:00 +10°C° 0 mm 2 mps 751 mmHg 34%
    13:00 +9°C° 0 mm 2 mps 752 mmHg 39%
    14:00 +8°C° 0 mm 2 mps 752 mmHg 44%
    15:00 +8°C° 0 mm 2 mps 752 mmHg 48%
    16:00 +6°C° 0 mm 2 mps 752 mmHg 50%
    17:00 +5°C° 0 mm 2 mps 753 mmHg 52%
    18:00 +4°C° 0 mm 2 mps 753 mmHg 55%
    19:00 +4°C° 0 mm 2 mps 754 mmHg 54%
    20:00 +3°C° 0 mm 2 mps 754 mmHg 53%
    21:00 +2°C° 0 mm 3 mps 755 mmHg 52%
    22:00 +2°C° 0 mm 3 mps 755 mmHg 52%
    23:00 +2°C° 0 mm 3 mps 755 mmHg 51%
    Show more